Content
SEND FEEDBACK

Daily
Averages
Monthly
Summary
United States of America

MANGILAO, GUAM


Home > North America > United States > Guam
Elevation: 18 meters     Latitude: 13 27N     Longitude: 144 49E

WEATHER
 
SELECT A DAY
Number of Records: 341,631;   Date Range: 1/1/95 - 7/20/14
 
SHARE

PRINT THIS DATA

[ ← Previous Day ]
WEATHER ALMANAC - 20 JANUARY, 2013
[ Next Day → ]
[ °F ]   °C
Weather ElementAverageHighLow
Temperature24.9 °C26.1 °C (1:55 pm)23 °C (7:31 am)
Dewpoint23.2 °C24 °C (9:18 am)20 °C (7:31 am)
Humidity90.5 %100 % (11:22 am)78 % (2:40 am)
Barometer1012.2 hPa1014.9 hPa (9:22 am)1010.2 hPa (3:23 pm)
Wind Speed37 km/h55.5 km/h (3:03 pm)
Wind Gust68.6 km/h (2:28 pm)
Weather ElementAverage
Visibility12.1 km
Wind DirectionNNE (37.7 °)

Weather ElementTotal
Precipitation12.19 mm
Cooling Degree Days6.2 (Base 18.3)
Growing Degree Days14.6 (Base 10)
Averaged from 220 records on 20 January, 2013
WEATHER CONDITIONS BREAKOUT
WIND DIRECTION BREAKOUT
WEATHER BY HOUR - 20 JANUARY, 2013
[ °F ]   °C
Local TimeTemperatureDewpointHumidityBarometerVisibilityWind DirectionWind SpeedGust SpeedPrecipitationEventsConditions
12:09 AM25 °C23 °C89 %1011.9 hPa16.1 kmNE (40°)24.1 km/h40.7 km/hMostly Cloudy
12:19 AM25 °C23 °C89 %1011.9 hPa16.1 kmNE (50°)22.2 km/hMostly Cloudy
12:20 AM25 °C23 °C89 %1011.9 hPa16.1 kmNE (40°)25.9 km/hMostly Cloudy
12:29 AM25 °C23 °C89 %1011.9 hPa16.1 kmNE (40°)35.2 km/h44.4 km/hMostly Cloudy
12:30 AM25 °C23 °C89 %1011.9 hPa16.1 kmNE (40°)33.3 km/h44.4 km/hMostly Cloudy
12:52 AM25 °C23 °C89 %1011.9 hPa16.1 kmNE (50°)33.3 km/hMostly Cloudy
12:55 AM25.2 °C22.9 °C87 %1011.9 hPa16.1 kmNE (50°)27.8 km/h0.25 mmMostly Cloudy
1:05 AM25 °C23 °C89 %1011.5 hPa16.1 kmNE (50°)29.6 km/hRainLight Rain
1:14 AM25 °C23 °C89 %1011.5 hPa16.1 kmNE (50°)31.5 km/hMostly Cloudy
1:21 AM25 °C23 °C89 %1011.5 hPa16.1 kmNE (50°)27.8 km/hScattered Clouds
1:22 AM25 °C23 °C89 %1011.5 hPa16.1 kmNE (50°)27.8 km/hMostly Cloudy
1:39 AM25 °C23 °C89 %1011.5 hPa16.1 kmNE (50°)33.3 km/h40.7 km/hScattered Clouds
1:49 AM25 °C23 °C89 %1011.5 hPa16.1 kmNE (50°)25.9 km/hMostly Cloudy
1:55 AM25.5 °C22.9 °C85 %1011.5 hPa16.1 kmNE (50°)25.9 km/h0 mmMostly Cloudy
2:07 AM26 °C23 °C83 %1011.5 hPa16.1 kmNE (50°)29.6 km/h40.7 km/hMostly Cloudy
2:31 AM26 °C23 °C83 %1011.2 hPa16.1 kmNE (50°)27.8 km/hMostly Cloudy
2:34 AM25 °C22 °C83 %1011.2 hPa16.1 kmNE (50°)27.8 km/h40.7 km/hMostly Cloudy
2:40 AM26 °C22 °C78 %1011.2 hPa16.1 kmNE (50°)27.8 km/h40.7 km/hMostly Cloudy
2:46 AM25 °C22 °C83 %1011.2 hPa14.5 kmENE (60°)27.8 km/h40.7 km/hRainLight Rain
2:55 AM24.3 °C22.1 °C87 %1011.2 hPa12.9 kmENE (60°)31.5 km/h0 mmRainLight Rain
3:02 AM24 °C22 °C89 %1010.8 hPa16.1 kmENE (60°)33.3 km/hMostly Cloudy
3:18 AM25 °C22 °C83 %1010.8 hPa16.1 kmNE (50°)27.8 km/hScattered Clouds
3:55 AM24.1 °C21 °C83 %1011.2 hPa16.1 kmNE (40°)31.5 km/h0 mmPartly Cloudy
4:22 AM25 °C22 °C83 %1011.2 hPa16.1 kmNE (40°)31.5 km/hMostly Cloudy
4:24 AM25 °C22 °C83 %1011.2 hPa16.1 kmNE (40°)31.5 km/hScattered Clouds
4:36 AM24 °C21 °C83 %1011.5 hPa16.1 kmNNE (30°)27.8 km/hMostly Cloudy
4:55 AM25.1 °C22.3 °C84 %1011.5 hPa16.1 kmNE (40°)31.5 km/h42.6 km/hMostly Cloudy
5:40 AM26 °C22 °C78 %1011.9 hPa16.1 kmNNE (30°)27.8 km/h38.9 km/hOvercast
5:43 AM26 °C22 °C78 %1011.9 hPa16.1 kmNNE (30°)31.5 km/h38.9 km/hOvercast
5:55 AM24.2 °C21.6 °C85 %1011.9 hPa16.1 kmNNE (20°)27.8 km/hOvercast
6:08 AM26 °C22 °C78 %1011.9 hPa16.1 kmNNE (20°)27.8 km/hOvercast
6:11 AM26 °C22 °C78 %1011.9 hPa16.1 kmNNE (30°)24.1 km/hOvercast
6:17 AM26 °C22 °C78 %1012.2 hPa16.1 kmNNE (30°)27.8 km/hOvercast
6:33 AM26 °C23 °C83 %1012.2 hPa16.1 kmNNE (20°)29.6 km/h37 km/hMostly Cloudy
6:42 AM26 °C23 °C83 %1012.2 hPa16.1 kmNNE (20°)33.3 km/hMostly Cloudy
6:48 AM26 °C23 °C83 %1012.5 hPa16.1 kmNNE (20°)31.5 km/h46.3 km/hMostly Cloudy
6:55 AM24.8 °C22.1 °C85 %1012.9 hPa16.1 kmNNE (20°)35.2 km/hOvercast
7:04 AM26 °C23 °C83 %1012.9 hPa16.1 kmNNE (20°)33.3 km/hOvercast
7:06 AM26 °C23 °C83 %1012.9 hPa16.1 kmNNE (20°)35.2 km/hOvercast
7:31 AM23 °C20 °C83 %1013.2 hPa16.1 kmNNE (20°)37 km/h51.8 km/hRainLight Rain
7:40 AM23 °C21 °C88 %1013.5 hPa16.1 kmNorth (10°)35.2 km/h51.8 km/hOvercast
7:54 AM26 °C22 °C78 %1013.5 hPa16.1 kmNNE (20°)33.3 km/h50.1 km/hOvercast
7:55 AM25.7 °C22.4 °C82 %1013.5 hPa16.1 kmNNE (20°)38.9 km/h50.1 km/h0 mmOvercast
8:09 AM26 °C23 °C83 %1013.9 hPa16.1 kmNNE (20°)33.3 km/h42.6 km/hLight Drizzle
8:29 AM26 °C23 °C83 %1014.2 hPa16.1 kmNNE (20°)33.3 km/h46.3 km/hOvercast
8:35 AM25 °C23 °C89 %1014.2 hPa8 kmNNE (30°)37 km/h53.8 km/hRainLight Rain
8:38 AM25 °C23 °C89 %1014.2 hPa6.4 kmNNE (20°)27.8 km/h53.8 km/hRainRain
8:41 AM25 °C23 °C89 %1014.6 hPa4 kmNNE (20°)31.5 km/h53.8 km/hRainHeavy Rain
8:42 AM25 °C23 °C89 %1014.6 hPa4 kmNNE (30°)31.5 km/h53.8 km/hRainHeavy Rain
8:45 AM25 °C23 °C89 %1014.6 hPa4.8 kmNE (40°)31.5 km/h46.3 km/hRainLight Rain
8:55 AM24.5 °C22.6 °C89 %1014.6 hPa16.1 kmNNE (30°)22.2 km/h46.3 km/h1.27 mmOvercast
9:07 AM25 °C23 °C89 %1014.6 hPa11.3 kmNE (40°)35.2 km/h46.3 km/hRainLight Rain
9:09 AM25 °C23 °C89 %1014.6 hPa6.4 kmNNE (30°)29.6 km/h46.3 km/hRainRain
9:18 AM25 °C24 °C94 %1014.6 hPa8 kmNNE (30°)33.3 km/h48.1 km/hRainLight Rain
9:22 AM25 °C23 °C89 %1014.9 hPa14.5 kmNNE (30°)35.2 km/h50.1 km/hOvercast
9:23 AM25 °C23 °C89 %1014.6 hPa16.1 kmNNE (30°)37 km/h50.1 km/hOvercast
9:28 AM25 °C23 °C89 %1014.9 hPa16.1 kmNNE (30°)33.3 km/h50.1 km/hOvercast
9:30 AM25 °C23 °C89 %1014.9 hPa16.1 kmNNE (30°)33.3 km/h50.1 km/hOvercast
9:31 AM25 °C23 °C89 %1014.9 hPa16.1 kmNNE (30°)31.5 km/h50.1 km/hOvercast
9:39 AM25 °C22 °C83 %1014.6 hPa14.5 kmNNE (30°)33.3 km/h44.4 km/hRainHeavy Rain
9:51 AM24 °C23 °C94 %1014.9 hPa6.4 kmNE (40°)35.2 km/h50.1 km/hRainHeavy Rain
9:55 AM24.3 °C22.9 °C92 %1014.9 hPa4 kmNNE (30°)31.5 km/h48.1 km/h2.54 mmRainHeavy Rain
9:58 AM24 °C23 °C94 %1014.9 hPa3.2 kmNE (40°)29.6 km/h48.1 km/hRainHeavy Rain
9:59 AM24 °C23 °C94 %1014.9 hPa3.2 kmNNE (30°)29.6 km/h48.1 km/hRainHeavy Rain
10:00 AM24 °C23 °C94 %1014.9 hPa4 kmNNE (30°)27.8 km/h46.3 km/hRainHeavy Rain
10:04 AM24 °C23 °C94 %1014.6 hPa4 kmNE (40°)33.3 km/h40.7 km/hRainHeavy Rain
10:05 AM24 °C23 °C94 %1014.6 hPa4 kmNE (40°)37 km/hRainHeavy Rain
10:06 AM24 °C23 °C94 %1014.6 hPa4.8 kmNE (40°)37 km/hRainHeavy Rain
10:10 AM24 °C23 °C94 %1014.6 hPa6.4 kmNE (40°)35.2 km/h48.1 km/hRainLight Rain
10:11 AM24 °C23 °C94 %1014.6 hPa6.4 kmNE (40°)35.2 km/h48.1 km/hRainLight Rain
10:20 AM24 °C23 °C94 %1014.6 hPa11.3 kmNNE (30°)27.8 km/h46.3 km/hOvercast
10:22 AM24 °C23 °C94 %1014.6 hPa14.5 kmNE (40°)29.6 km/h46.3 km/hLight Drizzle
10:23 AM24 °C23 °C94 %1014.6 hPa16.1 kmNNE (30°)33.3 km/h38.9 km/hOvercast
10:24 AM24 °C23 °C94 %1014.6 hPa16.1 kmNNE (30°)33.3 km/hLight Drizzle
10:29 AM24 °C23 °C94 %1014.6 hPa14.5 kmNNE (30°)31.5 km/h40.7 km/hLight Drizzle
10:37 AM25 °C23 °C89 %1014.6 hPa11.3 kmNNE (30°)35.2 km/h40.7 km/hRainLight Rain
10:38 AM25 °C23 °C89 %1014.6 hPa9.7 kmNNE (30°)35.2 km/h46.3 km/hRainLight Rain
10:40 AM25 °C23 °C89 %1014.6 hPa8 kmNNE (30°)35.2 km/h46.3 km/hRainLight Rain
10:45 AM25 °C23 °C89 %1014.6 hPa8 kmNNE (30°)33.3 km/h48.1 km/hRainLight Rain
10:47 AM25 °C23 °C89 %1014.6 hPa6.4 kmNNE (30°)35.2 km/h50.1 km/hRainLight Rain
10:49 AM25 °C23 °C89 %1014.6 hPa8 kmNNE (30°)37 km/h50.1 km/hOvercast
10:50 AM25 °C23 °C89 %1014.6 hPa8 kmNNE (30°)38.9 km/h50.1 km/hRainLight Rain
10:51 AM25 °C23 °C89 %1014.2 hPa8 kmNNE (20°)40.7 km/h50.1 km/hRainLight Rain
10:54 AM24 °C23 °C94 %1014.2 hPa8 kmNorth (10°)33.3 km/h50.1 km/hOvercast
10:55 AM24.4 °C23.2 °C93 %1014.2 hPa8 kmNorth (10°)31.5 km/h50.1 km/h2.29 mmOvercast
10:56 AM24 °C23 °C94 %1014.2 hPa8 kmNorth (10°)27.8 km/h50.1 km/hRainLight Rain
11:05 AM25 °C24 °C94 %1013.9 hPa6.4 kmNNE (30°)35.2 km/h44.4 km/hRainHeavy Rain
11:07 AM25 °C24 °C94 %1014.2 hPa4.8 kmNE (40°)46.3 km/h61.2 km/hRainLight Rain
11:08 AM25 °C24 °C94 %1014.2 hPa4.8 kmNE (40°)48.1 km/h61.2 km/hRainLight Rain
11:10 AM25 °C24 °C94 %1014.2 hPa4 kmNE (40°)44.4 km/h61.2 km/hRainLight Rain
11:12 AM24 °C23 °C94 %1014.2 hPa4.8 kmNE (40°)46.3 km/h61.2 km/hRainLight Rain
11:21 AM24 °C23 °C94 %1013.9 hPa9.7 kmNNE (20°)38.9 km/h57.5 km/hOvercast
11:22 AM24 °C24 °C100 %1013.9 hPa9.7 kmNNE (20°)37 km/h57.5 km/hRainLight Rain
11:24 AM24 °C24 °C100 %1013.9 hPa8 kmNNE (20°)40.7 km/h57.5 km/hRainLight Rain
11:48 AM24 °C23 °C94 %1013.5 hPa9.7 kmNNE (20°)37 km/h50.1 km/hRainLight Rain
11:51 AM24 °C23 °C94 %1013.5 hPa14.5 kmNNE (20°)35.2 km/h50.1 km/hRainLight Rain
11:53 AM24 °C23 °C94 %1013.5 hPa12.9 kmNNE (20°)35.2 km/h46.3 km/hOvercast
11:55 AM24.1 °C23.3 °C95 %1013.2 hPa14.5 kmNorth (10°)33.3 km/h46.3 km/h0.76 mmOvercast
12:12 PM24 °C24 °C100 %1013.2 hPa11.3 kmNNE (20°)33.3 km/h50.1 km/hOvercast
12:24 PM25 °C24 °C94 %1012.9 hPa12.9 kmNNE (30°)37 km/h46.3 km/hOvercast
12:32 PM25 °C24 °C94 %1012.9 hPa16.1 kmNNE (30°)31.5 km/h40.7 km/hOvercast
12:43 PM25 °C23 °C89 %1012.5 hPa16.1 kmNNE (20°)37 km/h51.8 km/hOvercast
12:47 PM25 °C23 °C89 %1012.5 hPa16.1 kmNNE (30°)33.3 km/h51.8 km/hOvercast
12:54 PM25 °C24 °C94 %1012.2 hPa16.1 kmNNE (30°)33.3 km/h44.4 km/hOvercast
12:55 PM25.3 °C23.6 °C90 %1012.2 hPa16.1 kmNNE (30°)33.3 km/h44.4 km/hOvercast
1:19 PM26 °C24 °C89 %1011.5 hPa14.5 kmNNE (20°)37 km/h48.1 km/hRainLight Rain
1:29 PM26 °C24 °C89 %1011.5 hPa16.1 kmNNE (20°)38.9 km/h50.1 km/hOvercast
1:46 PM26 °C23 °C83 %1011.2 hPa16.1 kmNNE (30°)35.2 km/h50.1 km/hOvercast
1:55 PM26.1 °C23.6 °C86 %1011.2 hPa16.1 kmNNE (30°)35.2 km/h48.1 km/h0 mmOvercast
2:28 PM26 °C24 °C89 %1010.5 hPa11.3 kmNNE (30°)38.9 km/h68.6 km/hOvercast
2:29 PM26 °C24 °C89 %1010.5 hPa11.3 kmNNE (30°)40.7 km/h68.6 km/hOvercast
2:30 PM26 °C24 °C89 %1010.5 hPa11.3 kmNE (40°)40.7 km/h68.6 km/hRainLight Rain
2:44 PM25 °C24 °C94 %1010.5 hPa14.5 kmNE (40°)40.7 km/h51.8 km/hOvercast
2:55 PM25.5 °C23.4 °C88 %1010.5 hPa16.1 kmNNE (30°)40.7 km/h53.8 km/h0.25 mmOvercast
3:03 PM26 °C23 °C83 %1010.5 hPa11.3 kmNE (50°)55.5 km/h62.9 km/hOvercast
3:04 PM26 °C23 °C83 %1010.5 hPa8 kmNE (40°)53.8 km/h62.9 km/hRainLight Rain
3:07 PM25 °C23 °C89 %1010.5 hPa4 kmNE (40°)46.3 km/h62.9 km/hRainLight Rain
3:09 PM25 °C23 °C89 %1010.5 hPa3.2 kmNE (40°)53.8 km/h66.6 km/hRainRain
3:10 PM25 °C23 °C89 %1010.5 hPa3.2 kmNE (40°)50.1 km/h66.6 km/hRainRain
3:11 PM25 °C23 °C89 %1010.5 hPa2.9 kmNE (40°)50.1 km/h66.6 km/hRainRain
3:13 PM25 °C23 °C89 %1010.5 hPa2.9 kmNE (40°)44.4 km/h66.6 km/hRainHeavy Rain
3:15 PM25 °C23 °C89 %1010.5 hPa3.2 kmNE (40°)44.4 km/h66.6 km/hRainLight Rain
3:16 PM25 °C23 °C89 %1010.5 hPa4 kmNE (40°)40.7 km/h66.6 km/hRainLight Rain
3:18 PM25 °C23 °C89 %1010.5 hPa4.8 kmNE (40°)42.6 km/h66.6 km/hRainLight Rain
3:23 PM25 °C24 °C94 %1010.2 hPa11.3 kmNE (40°)37 km/h55.5 km/hRainLight Rain
3:28 PM25 °C24 °C94 %1010.2 hPa16.1 kmNNE (30°)37 km/h48.1 km/hRainLight Rain
3:29 PM25 °C24 °C94 %1010.2 hPa16.1 kmNNE (30°)38.9 km/h48.1 km/hOvercast
3:34 PM25 °C24 °C94 %1010.2 hPa16.1 kmNE (50°)37 km/h48.1 km/hOvercast
3:36 PM25 °C24 °C94 %1010.2 hPa16.1 kmNE (40°)42.6 km/h51.8 km/hOvercast
3:45 PM26 °C24 °C89 %1010.2 hPa16.1 kmNE (40°)42.6 km/h51.8 km/hMostly Cloudy
3:53 PM26 °C24 °C89 %1010.2 hPa8 kmNE (40°)46.3 km/h57.5 km/hRainLight Rain
3:55 PM25.5 °C23.8 °C90 %1010.2 hPa6.4 kmNE (40°)44.4 km/h57.5 km/h1.02 mmRainLight Rain
3:57 PM25 °C24 °C94 %1010.2 hPa4.8 kmNE (40°)40.7 km/h57.5 km/hRainLight Rain
4:10 PM25 °C24 °C94 %1010.2 hPa8 kmNE (50°)42.6 km/h53.8 km/hRainLight Rain
4:12 PM25 °C24 °C94 %1010.5 hPa11.3 kmNE (40°)46.3 km/h55.5 km/hOvercast
4:13 PM25 °C24 °C94 %1010.5 hPa11.3 kmNE (40°)48.1 km/h55.5 km/hRainLight Rain
4:14 PM25 °C24 °C94 %1010.5 hPa11.3 kmNE (40°)42.6 km/h55.5 km/hOvercast
4:22 PM25 °C24 °C94 %1010.5 hPa14.5 kmNE (40°)38.9 km/h55.5 km/hOvercast
4:40 PM25 °C24 °C94 %1010.5 hPa16.1 kmNE (40°)42.6 km/hMostly Cloudy
4:55 PM25.3 °C23.7 °C91 %1010.8 hPa16.1 kmNE (40°)38.9 km/h48.1 km/h0 mmOvercast
5:12 PM25 °C23 °C89 %1010.8 hPa8 kmNE (50°)38.9 km/h57.5 km/hOvercast
5:13 PM25 °C23 °C89 %1010.8 hPa8 kmNE (50°)37 km/h57.5 km/hOvercast
5:14 PM25 °C23 °C89 %1010.8 hPa8 kmNE (40°)35.2 km/h48.1 km/hOvercast
5:15 PM25 °C23 °C89 %1010.8 hPa11.3 kmNE (40°)37 km/h48.1 km/hOvercast
5:16 PM25 °C23 °C89 %1010.8 hPa14.5 kmNE (40°)40.7 km/h48.1 km/hOvercast
5:17 PM25 °C23 °C89 %1010.8 hPa16.1 kmNE (40°)38.9 km/h48.1 km/hOvercast
5:20 PM25 °C23 °C89 %1010.8 hPa16.1 kmNE (40°)40.7 km/h51.8 km/hOvercast
5:21 PM25 °C23 °C89 %1010.8 hPa16.1 kmNE (40°)42.6 km/h51.8 km/hOvercast
5:22 PM25 °C24 °C94 %1010.8 hPa16.1 kmNE (40°)40.7 km/h51.8 km/hOvercast
5:29 PM25 °C24 °C94 %1010.8 hPa12.9 kmNE (40°)38.9 km/h48.1 km/hLight Drizzle
5:38 PM25 °C23 °C89 %1010.8 hPa16.1 kmNE (50°)38.9 km/h48.1 km/hOvercast
5:41 PM25 °C23 °C89 %1010.8 hPa16.1 kmNE (40°)37 km/h48.1 km/hOvercast
5:48 PM25 °C23 °C89 %1011.2 hPa9.7 kmNE (50°)40.7 km/h55.5 km/hOvercast
5:55 PM25 °C23.5 °C91 %1011.2 hPa16.1 kmNE (50°)38.9 km/h51.8 km/h0.25 mmMostly Cloudy
5:59 PM25 °C24 °C94 %1011.2 hPa16.1 kmNE (50°)37 km/h51.8 km/hMostly Cloudy
6:06 PM25 °C23 °C89 %1011.2 hPa16.1 kmNE (50°)40.7 km/h51.8 km/hMostly Cloudy
6:15 PM25 °C23 °C89 %1011.2 hPa16.1 kmNE (40°)44.4 km/h50.1 km/hMostly Cloudy
6:32 PM25 °C23 °C89 %1011.2 hPa16.1 kmNE (40°)37 km/h53.8 km/hMostly Cloudy
6:39 PM25 °C23 °C89 %1011.2 hPa16.1 kmNE (40°)40.7 km/h57.5 km/hOvercast
6:47 PM25 °C24 °C94 %1011.2 hPa16.1 kmNE (50°)38.9 km/h50.1 km/hOvercast
6:52 PM25 °C24 °C94 %1011.2 hPa16.1 kmENE (60°)35.2 km/h51.8 km/hOvercast
6:55 PM25.1 °C23.7 °C92 %1011.5 hPa14.5 kmNE (40°)38.9 km/h51.8 km/hOvercast
7:01 PM25 °C24 °C94 %1011.5 hPa14.5 kmNE (40°)40.7 km/h48.1 km/hOvercast
7:11 PM25 °C24 °C94 %1011.5 hPa16.1 kmNE (50°)42.6 km/h51.8 km/hOvercast
7:18 PM25 °C24 °C94 %1011.5 hPa14.5 kmNE (50°)33.3 km/h51.8 km/hOvercast
7:24 PM25 °C24 °C94 %1011.9 hPa8 kmNE (40°)40.7 km/h53.8 km/hOvercast
7:28 PM25 °C24 °C94 %1011.9 hPa4.8 kmNE (50°)38.9 km/h53.8 km/hRainLight Rain
7:31 PM25 °C24 °C94 %1011.9 hPa4 kmNE (40°)40.7 km/h51.8 km/hOvercast
7:33 PM25 °C24 °C94 %1011.9 hPa4.8 kmNE (50°)42.6 km/h51.8 km/hRainLight Rain
7:38 PM24 °C23 °C94 %1011.9 hPa6.4 kmNE (50°)40.7 km/h50.1 km/hOvercast
7:40 PM24 °C23 °C94 %1011.9 hPa9.7 kmNE (50°)38.9 km/h50.1 km/hOvercast
7:46 PM25 °C24 °C94 %1011.9 hPa16.1 kmNE (40°)35.2 km/h48.1 km/hOvercast
7:47 PM25 °C24 °C94 %1011.9 hPa16.1 kmNE (40°)35.2 km/h48.1 km/hOvercast
7:48 PM25 °C24 °C94 %1011.9 hPa16.1 kmNE (40°)37 km/h48.1 km/hOvercast
7:49 PM25 °C24 °C94 %1011.9 hPa16.1 kmNE (40°)38.9 km/hOvercast
7:55 PM24.8 °C23.8 °C94 %1011.9 hPa16.1 kmNE (40°)33.3 km/h44.4 km/h0.51 mmOvercast
8:10 PM25 °C24 °C94 %1012.2 hPa11.3 kmNE (50°)50.1 km/h62.9 km/hOvercast
8:14 PM25 °C23 °C89 %1012.2 hPa8 kmNE (50°)40.7 km/h62.9 km/hLight Drizzle
8:17 PM24 °C23 °C94 %1011.9 hPa8 kmNE (50°)38.9 km/h59.2 km/hLight Drizzle
8:19 PM24 °C23 °C94 %1012.2 hPa8 kmNE (40°)38.9 km/h59.2 km/hLight Drizzle
8:20 PM24 °C23 °C94 %1012.2 hPa9.7 kmNE (40°)37 km/h59.2 km/hLight Drizzle
8:24 PM24 °C23 °C94 %1012.2 hPa16.1 kmNE (40°)33.3 km/h48.1 km/hOvercast
8:27 PM25 °C24 °C94 %1012.2 hPa16.1 kmNE (50°)38.9 km/h48.1 km/hOvercast
8:28 PM25 °C24 °C94 %1012.2 hPa16.1 kmNE (40°)38.9 km/h48.1 km/hOvercast
8:35 PM25 °C24 °C94 %1011.9 hPa16.1 kmNE (50°)38.9 km/h46.3 km/hOvercast
8:43 PM25 °C24 °C94 %1012.2 hPa11.3 kmNE (40°)40.7 km/h53.8 km/hRainLight Rain
8:51 PM25 °C24 °C94 %1012.2 hPa4.8 kmNE (50°)48.1 km/h57.5 km/hRainLight Rain
8:54 PM25 °C24 °C94 %1012.2 hPa4 kmNE (50°)42.6 km/h57.5 km/hRainLight Rain
8:55 PM24.6 °C23.5 °C94 %1012.2 hPa4 kmNE (50°)44.4 km/h57.5 km/h1.02 mmRainLight Rain
9:00 PM24 °C23 °C94 %1012.2 hPa4.8 kmNE (50°)35.2 km/h57.5 km/hRainLight Rain
9:02 PM24 °C24 °C100 %1012.2 hPa6.4 kmNE (50°)35.2 km/hOvercast
9:13 PM25 °C24 °C94 %1012.2 hPa16.1 kmNE (50°)40.7 km/h50.1 km/hOvercast
9:14 PM25 °C24 °C94 %1012.2 hPa16.1 kmNE (50°)40.7 km/h50.1 km/hOvercast
9:17 PM25 °C24 °C94 %1012.5 hPa16.1 kmNE (40°)37 km/hOvercast
9:18 PM25 °C24 °C94 %1012.5 hPa16.1 kmNE (40°)40.7 km/hOvercast
9:21 PM25 °C24 °C94 %1012.2 hPa16.1 kmNE (40°)37 km/hOvercast
9:23 PM25 °C24 °C94 %1012.5 hPa16.1 kmNE (40°)35.2 km/hOvercast
9:24 PM25 °C24 °C94 %1012.5 hPa16.1 kmNE (50°)35.2 km/hOvercast
9:27 PM25 °C24 °C94 %1012.2 hPa16.1 kmNE (40°)38.9 km/hOvercast
9:37 PM25 °C24 °C94 %1012.5 hPa16.1 kmNE (40°)37 km/hOvercast
9:45 PM25 °C24 °C94 %1012.5 hPa9.7 kmNE (40°)44.4 km/h61.2 km/hRainLight Rain
9:55 PM24.5 °C23.5 °C94 %1012.5 hPa11.3 kmNE (40°)40.7 km/h59.2 km/h0.51 mmOvercast
9:56 PM25 °C23 °C89 %1012.5 hPa12.9 kmNE (40°)42.6 km/h59.2 km/hOvercast
10:03 PM25 °C24 °C94 %1012.5 hPa16.1 kmNE (40°)38.9 km/h51.8 km/hOvercast
10:13 PM25 °C24 °C94 %1012.5 hPa16.1 kmNE (40°)42.6 km/h51.8 km/hOvercast
10:37 PM25 °C24 °C94 %1012.2 hPa16.1 kmNE (40°)42.6 km/hOvercast
10:45 PM25 °C23 °C89 %1012.2 hPa16.1 kmNE (40°)38.9 km/hOvercast
10:47 PM25 °C23 °C89 %1012.2 hPa16.1 kmNE (40°)42.6 km/hOvercast
10:55 PM24.7 °C23.4 °C92 %1012.2 hPa16.1 kmNE (40°)38.9 km/h50.1 km/hOvercast
11:19 PM25 °C24 °C94 %1012.2 hPa16.1 kmNE (40°)42.6 km/h50.1 km/hLight Drizzle
11:23 PM25 °C24 °C94 %1012.2 hPa12.9 kmNNE (30°)40.7 km/h55.5 km/hLight Drizzle
11:27 PM25 °C23 °C89 %1012.2 hPa6.4 kmNE (50°)44.4 km/h57.5 km/hLight Drizzle
11:30 PM24 °C23 °C94 %1012.5 hPa4.8 kmNE (50°)40.7 km/h57.5 km/hRainLight Rain
11:32 PM24 °C23 °C94 %1012.5 hPa4 kmNE (50°)44.4 km/h57.5 km/hRainLight Rain
11:34 PM24 °C23 °C94 %1012.5 hPa4.8 kmNE (50°)44.4 km/h57.5 km/hRainLight Rain
11:37 PM24 °C23 °C94 %1012.5 hPa4.8 kmNE (50°)44.4 km/h57.5 km/hRainLight Rain
11:43 PM24 °C23 °C94 %1012.5 hPa4.8 kmNE (50°)42.6 km/h57.5 km/hRainLight Rain
11:44 PM24 °C23 °C94 %1012.2 hPa4.8 kmNE (50°)42.6 km/h57.5 km/hRainLight Rain
11:55 PM23.9 °C23 °C95 %1012.2 hPa6.4 kmNE (40°)46.3 km/h51.8 km/h1.52 mmRainRain
11:58 PM24 °C23 °C94 %1012.2 hPa4.8 kmNE (40°)40.7 km/h51.8 km/hRainHeavy Rain
Hourly data recorded from PGUA, located 0 kilometers away from Mangilao, Guam







STORIES FROM OUR PARTNERS